Time,TemperatureF,DewpointF,PressureIn,WindDirection,WindDirectionDegrees,WindSpeedMPH,WindSpeedGustMPH,Humidity,HourlyPrecipIn,Conditions,Clouds,dailyrainin,SoftwareType,DateUTC
2013-11-25 00:04:00,30.9,16.7,29.81,WSW,248,20.0,24.0,55,0.00,,,0.00,meteohub,2013-11-25 06:04:00,
2013-11-25 00:10:00,30.9,17.1,29.81,SW,225,27.0,27.0,56,0.00,,,0.00,meteohub,2013-11-25 06:10:00,
2013-11-25 00:15:00,30.9,17.1,29.80,SW,225,21.0,26.0,56,0.00,,,0.00,meteohub,2013-11-25 06:15:00,
2013-11-25 00:20:00,30.9,17.1,29.79,SW,225,23.0,27.0,56,0.00,,,0.00,meteohub,2013-11-25 06:20:00,
2013-11-25 00:25:00,30.9,17.1,29.79,SW,225,22.0,27.0,56,0.00,,,0.00,meteohub,2013-11-25 06:25:00,
2013-11-25 00:30:00,30.9,17.1,29.79,SW,225,22.0,27.0,56,0.00,,,0.00,meteohub,2013-11-25 06:30:00,
2013-11-25 00:35:00,31.1,17.6,29.79,SW,225,18.0,24.0,57,0.00,,,0.00,meteohub,2013-11-25 06:35:00,
2013-11-25 00:40:00,31.1,17.6,29.79,SW,225,20.0,24.0,57,0.00,,,0.00,meteohub,2013-11-25 06:40:00,
2013-11-25 00:45:00,31.1,17.6,29.79,SW,225,20.0,24.0,57,0.00,,,0.00,meteohub,2013-11-25 06:45:00,
2013-11-25 00:50:00,31.1,17.6,29.79,SW,225,21.0,23.0,57,0.00,,,0.00,meteohub,2013-11-25 06:50:00,
2013-11-25 00:55:00,31.3,17.8,29.79,SW,225,21.0,23.0,57,0.00,,,0.00,meteohub,2013-11-25 06:55:00,
2013-11-25 01:00:00,31.5,18.3,29.79,SW,225,19.0,23.0,58,0.00,,,0.00,meteohub,2013-11-25 07:00:00,
2013-11-25 01:06:00,31.5,18.3,29.78,SW,225,22.0,23.0,58,0.00,,,0.00,meteohub,2013-11-25 07:06:00,
2013-11-25 01:11:00,31.6,18.5,29.78,SW,225,20.0,22.0,58,0.00,,,0.00,meteohub,2013-11-25 07:11:00,
2013-11-25 01:16:00,31.8,19.0,29.78,SW,225,20.0,23.0,59,0.00,,,0.00,meteohub,2013-11-25 07:16:00,
2013-11-25 01:21:00,31.8,19.0,29.78,SW,225,20.0,23.0,59,0.00,,,0.00,meteohub,2013-11-25 07:21:00,
2013-11-25 01:26:00,32.0,18.9,29.78,NW,315,20.0,23.0,58,0.00,,,0.00,meteohub,2013-11-25 07:26:00,
2013-11-25 01:31:00,32.0,18.9,29.78,SW,225,21.0,24.0,58,0.00,,,0.00,meteohub,2013-11-25 07:31:00,
2013-11-25 01:36:00,32.0,19.2,29.78,NW,315,22.0,24.0,59,0.00,,,0.00,meteohub,2013-11-25 07:36:00,
2013-11-25 01:42:00,32.2,19.4,29.78,SW,225,19.0,24.0,59,0.00,,,0.00,meteohub,2013-11-25 07:42:00,
2013-11-25 01:47:00,32.2,19.4,29.78,SW,225,20.0,23.0,59,0.00,,,0.00,meteohub,2013-11-25 07:47:00,
2013-11-25 01:52:00,32.4,19.9,29.79,SW,225,21.0,23.0,60,0.00,,,0.00,meteohub,2013-11-25 07:52:00,
2013-11-25 01:57:00,32.5,20.1,29.78,West,270,21.0,25.0,60,0.00,,,0.00,meteohub,2013-11-25 07:57:00,
2013-11-25 02:02:00,32.7,20.3,29.78,West,270,23.0,27.0,60,0.00,,,0.00,meteohub,2013-11-25 08:02:00,
2013-11-25 02:07:00,32.9,20.5,29.78,SW,225,21.0,27.0,60,0.00,,,0.00,meteohub,2013-11-25 08:07:00,
2013-11-25 02:12:00,32.7,20.8,29.78,West,270,23.0,27.0,61,0.00,,,0.00,meteohub,2013-11-25 08:12:00,
2013-11-25 02:17:00,32.7,20.8,29.78,SW,225,21.0,26.0,61,0.00,,,0.00,meteohub,2013-11-25 08:17:00,
2013-11-25 02:22:00,32.7,20.8,29.78,West,270,23.0,25.0,61,0.00,,,0.00,meteohub,2013-11-25 08:22:00,
2013-11-25 02:27:00,32.7,20.8,29.78,SW,225,21.0,25.0,61,0.00,,,0.00,meteohub,2013-11-25 08:27:00,
2013-11-25 02:32:00,32.7,21.2,29.78,NNW,338,22.0,25.0,62,0.00,,,0.00,meteohub,2013-11-25 08:32:00,
2013-11-25 02:37:00,32.7,21.2,29.78,North,0,20.0,24.0,62,0.00,,,0.00,meteohub,2013-11-25 08:37:00,
2013-11-25 02:42:00,32.7,21.2,29.78,WNW,293,24.0,25.0,62,0.00,,,0.00,meteohub,2013-11-25 08:42:00,
2013-11-25 02:47:00,32.7,21.2,29.78,NW,315,21.0,25.0,62,0.00,,,0.00,meteohub,2013-11-25 08:47:00,
2013-11-25 02:53:00,32.7,21.2,29.78,SW,225,21.0,25.0,62,0.00,,,0.00,meteohub,2013-11-25 08:53:00,
2013-11-25 02:58:00,32.7,21.2,29.78,West,270,18.0,24.0,62,0.00,,,0.00,meteohub,2013-11-25 08:58:00,
2013-11-25 03:03:00,32.7,21.2,29.78,WNW,293,24.0,24.0,62,0.00,,,0.00,meteohub,2013-11-25 09:03:00,
2013-11-25 03:08:00,32.7,21.2,29.78,WNW,293,21.0,25.0,62,0.00,,,0.00,meteohub,2013-11-25 09:08:00,
2013-11-25 03:13:00,32.7,21.6,29.78,West,270,22.0,26.0,63,0.00,,,0.00,meteohub,2013-11-25 09:13:00,
2013-11-25 03:18:00,32.7,21.6,29.78,SW,225,22.0,26.0,63,0.00,,,0.00,meteohub,2013-11-25 09:18:00,
2013-11-25 03:23:00,32.5,21.4,29.78,SW,225,21.0,26.0,63,0.00,,,0.00,meteohub,2013-11-25 09:23:00,
2013-11-25 03:28:00,32.5,21.4,29.77,West,270,21.0,23.0,63,0.00,,,0.00,meteohub,2013-11-25 09:28:00,
2013-11-25 03:33:00,32.5,21.4,29.78,SW,225,18.0,23.0,63,0.00,,,0.00,meteohub,2013-11-25 09:33:00,
2013-11-25 03:38:00,32.4,21.2,29.78,West,270,19.0,23.0,63,0.00,,,0.00,meteohub,2013-11-25 09:38:00,
2013-11-25 03:43:00,32.2,21.4,29.78,West,270,17.0,23.0,64,0.00,,,0.00,meteohub,2013-11-25 09:43:00,
2013-11-25 03:48:00,32.0,21.2,29.78,West,270,15.0,22.0,64,0.00,,,0.00,meteohub,2013-11-25 09:48:00,
2013-11-25 03:54:00,31.8,21.4,29.78,West,270,15.0,19.0,65,0.00,,,0.00,meteohub,2013-11-25 09:54:00,
2013-11-25 03:59:00,31.8,21.4,29.78,West,270,18.0,19.0,65,0.00,,,0.00,meteohub,2013-11-25 09:59:00,
2013-11-25 04:04:00,32.0,21.6,29.79,West,270,14.0,19.0,65,0.00,,,0.00,meteohub,2013-11-25 10:04:00,
2013-11-25 04:09:00,32.0,21.6,29.78,West,270,16.0,19.0,65,0.00,,,0.00,meteohub,2013-11-25 10:09:00,
2013-11-25 04:14:00,32.0,21.9,29.78,West,270,12.0,19.0,66,0.00,,,0.00,meteohub,2013-11-25 10:14:00,
2013-11-25 04:19:00,32.2,22.1,29.78,West,270,15.0,19.0,66,0.00,,,0.00,meteohub,2013-11-25 10:19:00,
2013-11-25 04:24:00,32.4,22.3,29.78,West,270,15.0,19.0,66,0.00,,,0.00,meteohub,2013-11-25 10:24:00,
2013-11-25 04:29:00,32.4,22.3,29.79,West,270,11.0,19.0,66,0.00,,,0.00,meteohub,2013-11-25 10:29:00,
2013-11-25 04:34:00,32.2,22.1,29.78,West,270,17.0,19.0,66,0.00,,,0.00,meteohub,2013-11-25 10:34:00,
2013-11-25 04:39:00,32.0,21.9,29.79,West,270,13.0,17.0,66,0.00,,,0.00,meteohub,2013-11-25 10:39:00,
2013-11-25 04:44:00,31.8,22.1,29.79,West,270,15.0,17.0,67,0.00,,,0.00,meteohub,2013-11-25 10:44:00,
2013-11-25 04:49:00,31.5,21.7,29.79,West,270,15.0,17.0,67,0.00,,,0.00,meteohub,2013-11-25 10:49:00,
2013-11-25 04:54:00,31.3,21.6,29.79,West,270,15.0,17.0,67,0.00,,,0.00,meteohub,2013-11-25 10:54:00,
2013-11-25 04:59:00,31.3,21.9,29.79,West,270,14.0,17.0,68,0.00,,,0.00,meteohub,2013-11-25 10:59:00,
2013-11-25 05:04:00,31.1,21.7,29.79,West,270,12.0,17.0,68,0.00,,,0.00,meteohub,2013-11-25 11:04:00,
2013-11-25 05:10:00,30.6,21.2,29.79,West,270,11.0,17.0,68,0.00,,,0.00,meteohub,2013-11-25 11:10:00,
2013-11-25 05:15:00,30.2,20.8,29.79,West,270,15.0,17.0,68,0.00,,,0.00,meteohub,2013-11-25 11:15:00,
2013-11-25 05:20:00,30.2,21.2,29.79,West,270,15.0,15.0,69,0.00,,,0.00,meteohub,2013-11-25 11:20:00,
2013-11-25 05:25:00,30.4,21.7,29.80,SW,225,14.0,16.0,70,0.00,,,0.00,meteohub,2013-11-25 11:25:00,
2013-11-25 05:30:00,30.4,21.7,29.81,West,270,12.0,16.0,70,0.00,,,0.00,meteohub,2013-11-25 11:30:00,
2013-11-25 05:35:00,30.2,21.9,29.80,West,270,12.0,16.0,71,0.00,,,0.00,meteohub,2013-11-25 11:35:00,
2013-11-25 05:40:00,30.2,21.9,29.81,West,270,14.0,15.0,71,0.00,,,0.00,meteohub,2013-11-25 11:40:00,
2013-11-25 05:45:00,30.2,21.9,29.81,West,270,17.0,17.0,71,0.00,,,0.00,meteohub,2013-11-25 11:45:00,
2013-11-25 05:50:00,30.4,22.1,29.81,West,270,17.0,17.0,71,0.00,,,0.00,meteohub,2013-11-25 11:50:00,
2013-11-25 05:56:00,30.7,22.8,29.81,NE,45,15.0,17.0,72,0.00,,,0.00,meteohub,2013-11-25 11:56:00,
2013-11-25 06:01:00,30.6,22.3,29.81,West,270,17.0,18.0,71,0.00,,,0.00,meteohub,2013-11-25 12:01:00,
2013-11-25 06:06:00,30.9,23.0,29.82,West,270,21.0,21.0,72,0.00,,,0.00,meteohub,2013-11-25 12:06:00,
2013-11-25 06:11:00,31.3,23.4,29.82,West,270,17.0,21.0,72,0.00,,,0.00,meteohub,2013-11-25 12:11:00,
2013-11-25 06:16:00,31.3,23.4,29.82,NW,315,21.0,21.0,72,0.00,,,0.00,meteohub,2013-11-25 12:16:00,
2013-11-25 06:21:00,31.1,23.2,29.81,West,270,17.0,21.0,72,0.00,,,0.00,meteohub,2013-11-25 12:21:00,
2013-11-25 06:26:00,31.1,23.2,29.82,West,270,17.0,21.0,72,0.00,,,0.00,meteohub,2013-11-25 12:26:00,
2013-11-25 06:31:00,30.9,22.6,29.82,West,270,17.0,21.0,71,0.00,,,0.00,meteohub,2013-11-25 12:31:00,
2013-11-25 06:36:00,30.6,22.3,29.82,West,270,19.0,19.0,71,0.00,,,0.00,meteohub,2013-11-25 12:36:00,
2013-11-25 06:41:00,30.4,22.1,29.82,WSW,248,12.0,19.0,71,0.00,,,0.00,meteohub,2013-11-25 12:41:00,
2013-11-25 06:46:00,30.4,22.5,29.82,West,270,15.0,19.0,72,0.00,,,0.00,meteohub,2013-11-25 12:46:00,
2013-11-25 06:52:00,30.4,22.5,29.83,West,270,12.0,19.0,72,0.00,,,0.00,meteohub,2013-11-25 12:52:00,
2013-11-25 06:57:00,30.6,22.6,29.83,West,270,12.0,19.0,72,0.00,,,0.00,meteohub,2013-11-25 12:57:00,
2013-11-25 07:02:00,30.6,22.6,29.83,West,270,13.0,20.0,72,0.00,,,0.00,meteohub,2013-11-25 13:02:00,
2013-11-25 07:07:00,30.2,22.3,29.83,West,270,17.0,20.0,72,0.00,,,0.00,meteohub,2013-11-25 13:07:00,
2013-11-25 07:12:00,30.2,22.3,29.83,West,270,17.0,20.0,72,0.00,,,0.00,meteohub,2013-11-25 13:12:00,
2013-11-25 07:17:00,30.2,22.3,29.83,West,270,11.0,19.0,72,0.00,,,0.00,meteohub,2013-11-25 13:17:00,
2013-11-25 07:22:00,30.0,22.5,29.84,West,270,18.0,19.0,73,0.00,,,0.00,meteohub,2013-11-25 13:22:00,
2013-11-25 07:27:00,29.8,22.3,29.84,West,270,16.0,19.0,73,0.00,,,0.00,meteohub,2013-11-25 13:27:00,
2013-11-25 07:33:00,30.0,22.5,29.84,West,270,17.0,19.0,73,0.00,,,0.00,meteohub,2013-11-25 13:33:00,
2013-11-25 07:38:00,30.0,22.5,29.84,West,270,13.0,19.0,73,0.00,,,0.00,meteohub,2013-11-25 13:38:00,
2013-11-25 07:43:00,29.3,21.7,29.84,NW,315,13.0,18.0,73,0.00,,,0.00,meteohub,2013-11-25 13:43:00,
2013-11-25 07:48:00,28.9,21.4,29.85,North,0,15.0,18.0,73,0.00,,,0.00,meteohub,2013-11-25 13:48:00,
2013-11-25 07:53:00,29.1,21.6,29.85,West,270,13.0,18.0,73,0.00,,,0.00,meteohub,2013-11-25 13:53:00,
2013-11-25 07:58:00,29.3,21.7,29.85,West,270,15.0,17.0,73,0.00,,,0.00,meteohub,2013-11-25 13:58:00,
2013-11-25 08:03:00,29.3,21.7,29.85,NW,315,15.0,17.0,73,0.00,,,0.00,meteohub,2013-11-25 14:03:00,
2013-11-25 08:09:00,29.3,21.7,29.86,West,270,18.0,18.0,73,0.00,,,0.00,meteohub,2013-11-25 14:09:00,
2013-11-25 08:14:00,29.1,21.6,29.86,ENE,68,15.0,19.0,73,0.00,,,0.00,meteohub,2013-11-25 14:14:00,
2013-11-25 08:19:00,29.3,21.7,29.86,NW,315,16.0,19.0,73,0.00,,,0.00,meteohub,2013-11-25 14:19:00,
2013-11-25 08:24:00,29.5,21.9,29.87,NW,315,19.0,20.0,73,0.00,,,0.00,meteohub,2013-11-25 14:24:00,
2013-11-25 08:29:00,29.5,21.9,29.86,West,270,17.0,20.0,73,0.00,,,0.00,meteohub,2013-11-25 14:29:00,
2013-11-25 08:34:00,29.7,22.1,29.87,NW,315,19.0,20.0,73,0.00,,,0.00,meteohub,2013-11-25 14:34:00,
2013-11-25 08:39:00,30.0,22.5,29.87,NW,315,20.0,23.0,73,0.00,,,0.00,meteohub,2013-11-25 14:39:00,
2013-11-25 08:44:00,30.2,22.3,29.87,NW,315,19.0,23.0,72,0.00,,,0.00,meteohub,2013-11-25 14:44:00,
2013-11-25 08:49:00,30.7,22.8,29.88,NW,315,17.0,23.0,72,0.00,,,0.00,meteohub,2013-11-25 14:49:00,
2013-11-25 08:54:00,31.1,23.2,29.88,NW,315,20.0,22.0,72,0.00,,,0.00,meteohub,2013-11-25 14:54:00,
2013-11-25 08:59:00,31.3,23.0,29.88,West,270,18.0,21.0,71,0.00,,,0.00,meteohub,2013-11-25 14:59:00,
2013-11-25 09:04:00,31.6,23.4,29.88,West,270,19.0,21.0,71,0.00,,,0.00,meteohub,2013-11-25 15:04:00,
2013-11-25 09:09:00,32.0,23.4,29.88,NW,315,20.0,21.0,70,0.00,,,0.00,meteohub,2013-11-25 15:09:00,
2013-11-25 09:15:00,32.2,23.2,29.88,West,270,18.0,24.0,69,0.00,,,0.00,meteohub,2013-11-25 15:15:00,
2013-11-25 09:20:00,32.5,23.5,29.89,NW,315,24.0,24.0,69,0.00,,,0.00,meteohub,2013-11-25 15:20:00,
2013-11-25 09:25:00,32.5,23.2,29.89,NW,315,24.0,28.0,68,0.00,,,0.00,meteohub,2013-11-25 15:25:00,
2013-11-25 09:30:00,32.7,23.0,29.89,NW,315,27.0,28.0,67,0.00,,,0.00,meteohub,2013-11-25 15:30:00,
2013-11-25 09:35:00,33.1,23.4,29.90,NW,315,21.0,28.0,67,0.00,,,0.00,meteohub,2013-11-25 15:35:00,
2013-11-25 09:40:00,33.8,23.4,29.89,NW,315,20.0,27.0,65,0.00,,,0.00,meteohub,2013-11-25 15:40:00,
2013-11-25 09:45:00,33.8,23.4,29.90,NW,315,25.0,27.0,65,0.00,,,0.00,meteohub,2013-11-25 15:45:00,
2013-11-25 09:50:00,33.8,23.4,29.90,NW,315,23.0,25.0,65,0.00,,,0.00,meteohub,2013-11-25 15:50:00,
2013-11-25 09:55:00,34.0,23.0,29.91,NW,315,26.0,27.0,64,0.00,,,0.00,meteohub,2013-11-25 15:55:00,
2013-11-25 10:01:00,34.0,22.6,29.91,NW,315,27.0,27.0,63,0.00,,,0.00,meteohub,2013-11-25 16:01:00,
2013-11-25 10:06:00,33.8,22.5,29.91,NW,315,24.0,27.0,63,0.00,,,0.00,meteohub,2013-11-25 16:06:00,
2013-11-25 10:11:00,34.2,23.2,29.91,NW,315,25.0,27.0,64,0.00,,,0.00,meteohub,2013-11-25 16:11:00,
2013-11-25 10:16:00,34.2,22.8,29.91,NW,315,21.0,27.0,63,0.00,,,0.00,meteohub,2013-11-25 16:16:00,
2013-11-25 10:21:00,34.5,23.5,29.91,West,270,21.0,26.0,64,0.00,,,0.00,meteohub,2013-11-25 16:21:00,
2013-11-25 10:26:00,35.1,23.7,29.90,NW,315,20.0,26.0,63,0.00,,,0.00,meteohub,2013-11-25 16:26:00,
2013-11-25 10:31:00,35.4,24.1,29.90,NW,315,23.0,26.0,63,0.00,,,0.00,meteohub,2013-11-25 16:31:00,
2013-11-25 10:36:00,35.8,23.7,29.91,NW,315,22.0,24.0,61,0.00,,,0.00,meteohub,2013-11-25 16:36:00,
2013-11-25 10:41:00,35.8,23.2,29.90,West,270,22.0,26.0,60,0.00,,,0.00,meteohub,2013-11-25 16:41:00,
2013-11-25 10:47:00,35.6,22.6,29.91,NW,315,21.0,26.0,59,0.00,,,0.00,meteohub,2013-11-25 16:47:00,
2013-11-25 10:52:00,35.6,22.6,29.91,NW,315,25.0,26.0,59,0.00,,,0.00,meteohub,2013-11-25 16:52:00,
2013-11-25 10:57:00,36.0,23.0,29.90,West,270,23.0,26.0,59,0.00,,,0.00,meteohub,2013-11-25 16:57:00,
2013-11-25 11:02:00,36.7,23.7,29.91,NNW,338,24.0,26.0,59,0.00,,,0.00,meteohub,2013-11-25 17:02:00,
2013-11-25 11:07:00,36.7,23.4,29.90,NW,315,26.0,26.0,58,0.00,,,0.00,meteohub,2013-11-25 17:07:00,
2013-11-25 11:12:00,36.5,23.2,29.91,NW,315,30.0,30.0,58,0.00,,,0.00,meteohub,2013-11-25 17:12:00,
2013-11-25 11:17:00,36.3,23.0,29.90,NW,315,21.0,30.0,58,0.00,,,0.00,meteohub,2013-11-25 17:17:00,
2013-11-25 11:22:00,36.5,22.6,29.90,West,270,23.0,30.0,57,0.00,,,0.00,meteohub,2013-11-25 17:22:00,
2013-11-25 11:27:00,36.5,22.6,29.90,NW,315,21.0,30.0,57,0.00,,,0.00,meteohub,2013-11-25 17:27:00,
2013-11-25 11:33:00,36.7,22.8,29.90,NW,315,26.0,26.0,57,0.00,,,0.00,meteohub,2013-11-25 17:33:00,
2013-11-25 11:38:00,36.9,22.6,29.90,NW,315,20.0,26.0,56,0.00,,,0.00,meteohub,2013-11-25 17:38:00,
2013-11-25 11:43:00,37.9,25.3,29.90,West,270,22.0,27.0,60,0.00,,,0.00,meteohub,2013-11-25 17:43:00,
2013-11-25 11:48:00,37.8,24.3,29.90,West,270,20.0,27.0,58,0.00,,,0.00,meteohub,2013-11-25 17:48:00,
2013-11-25 11:53:00,37.6,23.7,29.90,NW,315,25.0,27.0,57,0.00,,,0.00,meteohub,2013-11-25 17:53:00,
2013-11-25 11:58:00,37.8,23.9,29.90,West,270,23.0,25.0,57,0.00,,,0.00,meteohub,2013-11-25 17:58:00,
2013-11-25 12:03:00,37.9,24.1,29.90,NW,315,17.0,26.0,57,0.00,,,0.00,meteohub,2013-11-25 18:03:00,
2013-11-25 12:09:00,39.4,24.6,29.90,NW,315,23.0,26.0,55,0.00,,,0.00,meteohub,2013-11-25 18:09:00,
2013-11-25 12:14:00,39.9,24.3,29.89,WNW,293,27.0,27.0,53,0.00,,,0.00,meteohub,2013-11-25 18:14:00,
2013-11-25 12:19:00,40.8,24.6,29.89,NW,315,25.0,28.0,52,0.00,,,0.00,meteohub,2013-11-25 18:19:00,
2013-11-25 12:25:00,40.1,22.5,29.90,NW,315,20.0,29.0,49,0.00,,,0.00,meteohub,2013-11-25 18:25:00,
2013-11-25 12:30:00,39.0,22.5,29.90,NW,315,25.0,29.0,51,0.00,,,0.00,meteohub,2013-11-25 18:30:00,
2013-11-25 12:31:00,38.8,22.6,29.90,NW,315,27.0,32.0,52,0.00,,,0.00,meteohub,2013-11-25 18:31:00,
2013-11-25 12:42:00,38.3,22.6,29.90,West,270,21.0,32.0,53,0.00,,,0.00,meteohub,2013-11-25 18:42:00,
2013-11-25 12:47:00,38.5,22.8,29.90,West,270,26.0,28.0,53,0.00,,,0.00,meteohub,2013-11-25 18:47:00,
2013-11-25 12:52:00,38.3,22.6,29.90,NW,315,23.0,27.0,53,0.00,,,0.00,meteohub,2013-11-25 18:52:00,
2013-11-25 12:57:00,38.1,22.5,29.89,NW,315,27.0,27.0,53,0.00,,,0.00,meteohub,2013-11-25 18:57:00,
2013-11-25 13:03:00,38.1,22.5,29.90,West,270,21.0,28.0,53,0.00,,,0.00,meteohub,2013-11-25 19:03:00,
2013-11-25 13:08:00,38.5,22.8,29.90,West,270,21.0,28.0,53,0.00,,,0.00,meteohub,2013-11-25 19:08:00,
2013-11-25 13:14:00,38.3,22.3,29.90,NW,315,28.0,28.0,52,0.00,,,0.00,meteohub,2013-11-25 19:14:00,
2013-11-25 13:19:00,37.8,21.7,29.90,West,270,30.0,30.0,52,0.00,,,0.00,meteohub,2013-11-25 19:19:00,
2013-11-25 13:24:00,37.6,21.6,29.89,NW,315,27.0,29.0,52,0.00,,,0.00,meteohub,2013-11-25 19:24:00,
2013-11-25 13:29:00,37.8,21.7,29.90,NW,315,23.0,30.0,52,0.00,,,0.00,meteohub,2013-11-25 19:29:00,
2013-11-25 13:34:00,37.9,21.9,29.91,West,270,24.0,30.0,52,0.00,,,0.00,meteohub,2013-11-25 19:34:00,
2013-11-25 13:40:00,37.4,21.4,29.91,West,270,25.0,29.0,52,0.00,,,0.00,meteohub,2013-11-25 19:40:00,
2013-11-25 13:45:00,37.6,21.6,29.91,WNW,293,27.0,36.0,52,0.00,,,0.00,meteohub,2013-11-25 19:45:00,
2013-11-25 13:50:00,37.6,21.6,29.91,NW,315,30.0,36.0,52,0.00,,,0.00,meteohub,2013-11-25 19:50:00,
2013-11-25 13:56:00,37.6,21.6,29.90,NW,315,29.0,32.0,52,0.00,,,0.00,meteohub,2013-11-25 19:56:00,
2013-11-25 14:01:00,37.6,21.6,29.91,NW,315,33.0,33.0,52,0.00,,,0.00,meteohub,2013-11-25 20:01:00,
2013-11-25 14:06:00,37.6,21.6,29.91,NW,315,24.0,36.0,52,0.00,,,0.00,meteohub,2013-11-25 20:06:00,
2013-11-25 14:11:00,37.6,21.6,29.91,NW,315,27.0,36.0,52,0.00,,,0.00,meteohub,2013-11-25 20:11:00,
2013-11-25 14:16:00,37.6,21.6,29.91,NW,315,28.0,33.0,52,0.00,,,0.00,meteohub,2013-11-25 20:16:00,
2013-11-25 14:22:00,37.4,21.9,29.91,NW,315,30.0,33.0,53,0.00,,,0.00,meteohub,2013-11-25 20:22:00,
2013-11-25 14:27:00,37.4,21.4,29.91,WNW,293,21.0,33.0,52,0.00,,,0.00,meteohub,2013-11-25 20:27:00,
2013-11-25 14:32:00,37.6,21.9,29.91,NW,315,21.0,33.0,53,0.00,,,0.00,meteohub,2013-11-25 20:32:00,
2013-11-25 14:37:00,37.4,21.4,29.91,NW,315,31.0,31.0,52,0.00,,,0.00,meteohub,2013-11-25 20:37:00,
2013-11-25 14:42:00,37.6,21.6,29.91,NW,315,26.0,31.0,52,0.00,,,0.00,meteohub,2013-11-25 20:42:00,
2013-11-25 14:48:00,37.4,21.4,29.91,NW,315,25.0,31.0,52,0.00,,,0.00,meteohub,2013-11-25 20:48:00,
2013-11-25 14:53:00,37.4,21.4,29.92,NW,315,23.0,31.0,52,0.00,,,0.00,meteohub,2013-11-25 20:53:00,
2013-11-25 14:58:00,37.2,19.4,29.91,West,270,22.0,27.0,48,0.00,,,0.00,meteohub,2013-11-25 20:58:00,
2013-11-25 15:03:00,37.4,21.4,29.92,NW,315,22.0,27.0,52,0.00,,,0.00,meteohub,2013-11-25 21:03:00,
2013-11-25 15:08:00,37.4,21.9,29.91,NW,315,20.0,27.0,53,0.00,,,0.00,meteohub,2013-11-25 21:08:00,
2013-11-25 15:13:00,37.2,19.8,29.92,NW,315,25.0,27.0,49,0.00,,,0.00,meteohub,2013-11-25 21:13:00,
2013-11-25 15:18:00,37.2,19.8,29.92,NW,315,25.0,27.0,49,0.00,,,0.00,meteohub,2013-11-25 21:18:00,
2013-11-25 15:23:00,37.4,21.9,29.92,West,270,20.0,27.0,53,0.00,,,0.00,meteohub,2013-11-25 21:23:00,
2013-11-25 15:29:00,37.4,21.9,29.93,West,270,23.0,27.0,53,0.00,,,0.00,meteohub,2013-11-25 21:29:00,
2013-11-25 15:34:00,37.4,21.9,29.93,West,270,16.0,27.0,53,0.00,,,0.00,meteohub,2013-11-25 21:34:00,
2013-11-25 15:39:00,37.4,22.3,29.94,West,270,22.0,26.0,54,0.00,,,0.00,meteohub,2013-11-25 21:39:00,
2013-11-25 15:44:00,37.4,22.3,29.93,West,270,20.0,26.0,54,0.00,,,0.00,meteohub,2013-11-25 21:44:00,
2013-11-25 15:49:00,37.4,22.3,29.93,West,270,17.0,26.0,54,0.00,,,0.00,meteohub,2013-11-25 21:49:00,
2013-11-25 15:54:00,37.2,20.3,29.93,West,270,18.0,24.0,50,0.00,,,0.00,meteohub,2013-11-25 21:54:00,
2013-11-25 15:59:00,37.2,20.3,29.94,West,270,17.0,24.0,50,0.00,,,0.00,meteohub,2013-11-25 21:59:00,
2013-11-25 16:04:00,37.0,20.1,29.94,West,270,17.0,21.0,50,0.00,,,0.00,meteohub,2013-11-25 22:04:00,
2013-11-25 16:09:00,37.0,20.1,29.94,NW,315,17.0,21.0,50,0.00,,,0.00,meteohub,2013-11-25 22:09:00,
2013-11-25 16:14:00,37.2,19.8,29.94,West,270,16.0,23.0,49,0.00,,,0.00,meteohub,2013-11-25 22:14:00,
2013-11-25 16:20:00,36.9,19.4,29.94,West,270,22.0,23.0,49,0.00,,,0.00,meteohub,2013-11-25 22:20:00,
2013-11-25 16:25:00,36.9,19.9,29.94,West,270,21.0,23.0,50,0.00,,,0.00,meteohub,2013-11-25 22:25:00,
2013-11-25 16:30:00,36.7,19.8,29.94,West,270,21.0,23.0,50,0.00,,,0.00,meteohub,2013-11-25 22:30:00,
2013-11-25 16:35:00,36.5,19.6,29.94,West,270,23.0,23.0,50,0.00,,,0.00,meteohub,2013-11-25 22:35:00,
2013-11-25 16:40:00,36.3,19.9,29.95,West,270,17.0,23.0,51,0.00,,,0.00,meteohub,2013-11-25 22:40:00,
2013-11-25 16:45:00,36.3,19.9,29.94,West,270,25.0,25.0,51,0.00,,,0.00,meteohub,2013-11-25 22:45:00,
2013-11-25 16:50:00,36.3,19.9,29.94,West,270,17.0,25.0,51,0.00,,,0.00,meteohub,2013-11-25 22:50:00,
2013-11-25 16:55:00,36.1,19.8,29.94,West,270,20.0,25.0,51,0.00,,,0.00,meteohub,2013-11-25 22:55:00,
2013-11-25 17:00:00,36.1,19.8,29.95,West,270,18.0,25.0,51,0.00,,,0.00,meteohub,2013-11-25 23:00:00,
2013-11-25 17:05:00,36.1,20.3,29.94,West,270,21.0,24.0,52,0.00,,,0.00,meteohub,2013-11-25 23:05:00,
2013-11-25 17:10:00,36.1,19.8,29.95,West,270,15.0,25.0,51,0.00,,,0.00,meteohub,2013-11-25 23:10:00,
2013-11-25 17:16:00,36.1,20.3,29.95,West,270,16.0,25.0,52,0.00,,,0.00,meteohub,2013-11-25 23:16:00,
2013-11-25 17:21:00,36.3,19.9,29.96,West,270,22.0,25.0,51,0.00,,,0.00,meteohub,2013-11-25 23:21:00,
2013-11-25 17:26:00,36.1,19.8,29.96,West,270,16.0,22.0,51,0.00,,,0.00,meteohub,2013-11-25 23:26:00,
2013-11-25 17:31:00,36.0,19.6,29.96,West,270,16.0,22.0,51,0.00,,,0.00,meteohub,2013-11-25 23:31:00,
2013-11-25 17:36:00,36.0,19.6,29.96,West,270,17.0,22.0,51,0.00,,,0.00,meteohub,2013-11-25 23:36:00,
2013-11-25 17:42:00,36.0,19.6,29.96,West,270,19.0,20.0,51,0.00,,,0.00,meteohub,2013-11-25 23:42:00,
2013-11-25 17:47:00,36.0,19.0,29.96,West,270,21.0,23.0,50,0.00,,,0.00,meteohub,2013-11-25 23:47:00,
2013-11-25 17:52:00,35.8,19.0,29.97,NW,315,25.0,27.0,50,0.00,,,0.00,meteohub,2013-11-25 23:52:00,
2013-11-25 17:57:00,35.8,18.5,29.97,NW,315,29.0,29.0,49,0.00,,,0.00,meteohub,2013-11-25 23:57:00,
2013-11-25 18:02:00,35.8,18.5,29.97,NW,315,25.0,30.0,49,0.00,,,0.00,meteohub,2013-11-26 00:02:00,
2013-11-25 18:07:00,35.6,18.3,29.98,NW,315,23.0,30.0,49,0.00,,,0.00,meteohub,2013-11-26 00:07:00,
2013-11-25 18:12:00,35.6,18.9,29.98,NW,315,19.0,30.0,50,0.00,,,0.00,meteohub,2013-11-26 00:12:00,
2013-11-25 18:17:00,35.4,19.6,29.98,West,270,23.0,26.0,52,0.00,,,0.00,meteohub,2013-11-26 00:17:00,
2013-11-25 18:22:00,35.2,19.4,29.98,NW,315,24.0,26.0,52,0.00,,,0.00,meteohub,2013-11-26 00:22:00,
2013-11-25 18:28:00,35.2,19.4,29.98,NW,315,26.0,26.0,52,0.00,,,0.00,meteohub,2013-11-26 00:28:00,
2013-11-25 18:33:00,35.1,19.2,29.98,NW,315,23.0,27.0,52,0.00,,,0.00,meteohub,2013-11-26 00:33:00,
2013-11-25 18:38:00,35.1,19.2,29.99,NW,315,25.0,27.0,52,0.00,,,0.00,meteohub,2013-11-26 00:38:00,
2013-11-25 18:43:00,34.9,19.4,30.00,NW,315,26.0,29.0,53,0.00,,,0.00,meteohub,2013-11-26 00:43:00,
2013-11-25 18:48:00,34.7,19.4,29.99,NW,315,30.0,31.0,53,0.00,,,0.00,meteohub,2013-11-26 00:48:00,
2013-11-25 18:53:00,34.3,18.5,29.99,NW,315,21.0,33.0,52,0.00,,,0.00,meteohub,2013-11-26 00:53:00,
2013-11-25 18:58:00,34.3,18.5,30.00,West,270,30.0,33.0,52,0.00,,,0.00,meteohub,2013-11-26 00:58:00,
2013-11-25 19:03:00,34.3,18.5,30.00,NW,315,23.0,33.0,52,0.00,,,0.00,meteohub,2013-11-26 01:03:00,
2013-11-25 19:08:00,34.3,19.0,30.00,NW,315,24.0,31.0,53,0.00,,,0.00,meteohub,2013-11-26 01:08:00,
2013-11-25 19:13:00,34.2,18.9,30.00,West,270,22.0,31.0,53,0.00,,,0.00,meteohub,2013-11-26 01:13:00,
2013-11-25 19:18:00,34.2,18.9,30.01,NW,315,27.0,31.0,53,0.00,,,0.00,meteohub,2013-11-26 01:18:00,
2013-11-25 19:24:00,34.2,18.9,29.99,NW,315,24.0,28.0,53,0.00,,,0.00,meteohub,2013-11-26 01:24:00,
2013-11-25 19:29:00,34.2,18.9,30.02,NW,315,34.0,34.0,53,0.00,,,0.00,meteohub,2013-11-26 01:29:00,
2013-11-25 19:34:00,34.2,18.9,30.00,NW,315,27.0,38.0,53,0.00,,,0.00,meteohub,2013-11-26 01:34:00,
2013-11-25 19:39:00,34.2,18.9,30.00,NW,315,30.0,38.0,53,0.00,,,0.00,meteohub,2013-11-26 01:39:00,
2013-11-25 19:44:00,34.0,18.7,30.00,NW,315,27.0,38.0,53,0.00,,,0.00,meteohub,2013-11-26 01:44:00,
2013-11-25 19:49:00,33.8,18.5,30.00,NW,315,27.0,38.0,53,0.00,,,0.00,meteohub,2013-11-26 01:49:00,
2013-11-25 19:54:00,33.6,19.2,29.99,NW,315,27.0,34.0,55,0.00,,,0.00,meteohub,2013-11-26 01:54:00,
2013-11-25 19:59:00,33.6,19.2,29.99,NW,315,22.0,27.0,55,0.00,,,0.00,meteohub,2013-11-26 01:59:00,
2013-11-25 20:04:00,33.4,19.0,30.00,NW,315,21.0,27.0,55,0.00,,,0.00,meteohub,2013-11-26 02:04:00,
2013-11-25 20:09:00,33.4,19.0,29.99,West,270,21.0,27.0,55,0.00,,,0.00,meteohub,2013-11-26 02:09:00,
2013-11-25 20:14:00,33.3,19.2,29.99,NW,315,23.0,26.0,56,0.00,,,0.00,meteohub,2013-11-26 02:14:00,
2013-11-25 20:19:00,33.1,19.0,29.98,NW,315,26.0,26.0,56,0.00,,,0.00,meteohub,2013-11-26 02:19:00,
2013-11-25 20:25:00,33.1,19.0,29.98,NW,315,24.0,26.0,56,0.00,,,0.00,meteohub,2013-11-26 02:25:00,
2013-11-25 20:30:00,32.9,18.9,29.98,West,270,22.0,27.0,56,0.00,,,0.00,meteohub,2013-11-26 02:30:00,
2013-11-25 20:35:00,32.9,18.9,29.98,NW,315,19.0,27.0,56,0.00,,,0.00,meteohub,2013-11-26 02:35:00,
2013-11-25 20:40:00,32.9,19.4,29.98,NW,315,20.0,27.0,57,0.00,,,0.00,meteohub,2013-11-26 02:40:00,
2013-11-25 20:45:00,32.9,19.8,29.98,NW,315,19.0,23.0,58,0.00,,,0.00,meteohub,2013-11-26 02:45:00,
2013-11-25 20:50:00,32.5,20.1,29.98,NW,315,17.0,23.0,60,0.00,,,0.00,meteohub,2013-11-26 02:50:00,
2013-11-25 20:55:00,32.4,20.5,29.97,North,0,14.0,21.0,61,0.00,,,0.00,meteohub,2013-11-26 02:55:00,
2013-11-25 21:00:00,32.2,20.3,29.98,North,0,16.0,19.0,61,0.00,,,0.00,meteohub,2013-11-26 03:00:00,
2013-11-25 21:05:00,32.0,20.5,29.98,NW,315,17.0,17.0,62,0.00,,,0.00,meteohub,2013-11-26 03:05:00,
2013-11-25 21:10:00,31.8,20.7,29.98,North,0,17.0,18.0,63,0.00,,,0.00,meteohub,2013-11-26 03:10:00,
2013-11-25 21:16:00,31.6,20.5,29.98,WNW,293,19.0,21.0,63,0.00,,,0.00,meteohub,2013-11-26 03:16:00,
2013-11-25 21:21:00,31.6,20.5,29.97,North,0,16.0,21.0,63,0.00,,,0.00,meteohub,2013-11-26 03:21:00,
2013-11-25 21:26:00,31.5,20.7,29.98,NW,315,18.0,21.0,64,0.00,,,0.00,meteohub,2013-11-26 03:26:00,
2013-11-25 21:31:00,31.3,20.1,29.97,WNW,293,21.0,23.0,63,0.00,,,0.00,meteohub,2013-11-26 03:31:00,
2013-11-25 21:36:00,31.3,20.1,29.98,NW,315,20.0,23.0,63,0.00,,,0.00,meteohub,2013-11-26 03:36:00,
2013-11-25 21:41:00,31.1,19.9,29.98,North,0,21.0,23.0,63,0.00,,,0.00,meteohub,2013-11-26 03:41:00,
2013-11-25 21:46:00,30.9,19.8,29.98,NW,315,20.0,23.0,63,0.00,,,0.00,meteohub,2013-11-26 03:46:00,
2013-11-25 21:51:00,30.9,20.1,29.98,NW,315,23.0,23.0,64,0.00,,,0.00,meteohub,2013-11-26 03:51:00,
2013-11-25 21:56:00,30.7,19.9,29.97,NW,315,21.0,23.0,64,0.00,,,0.00,meteohub,2013-11-26 03:56:00,
2013-11-25 22:01:00,30.7,19.9,29.98,NW,315,21.0,23.0,64,0.00,,,0.00,meteohub,2013-11-26 04:01:00,
2013-11-25 22:06:00,30.6,19.8,29.98,NW,315,23.0,23.0,64,0.00,,,0.00,meteohub,2013-11-26 04:06:00,
2013-11-25 22:11:00,30.6,19.8,29.98,NW,315,19.0,23.0,64,0.00,,,0.00,meteohub,2013-11-26 04:11:00,
2013-11-25 22:17:00,30.4,19.9,29.98,WNW,293,21.0,23.0,65,0.00,,,0.00,meteohub,2013-11-26 04:17:00,
2013-11-25 22:22:00,30.2,19.6,29.98,NW,315,17.0,23.0,64,0.00,,,0.00,meteohub,2013-11-26 04:22:00,
2013-11-25 22:27:00,30.4,19.6,29.99,WNW,293,23.0,26.0,64,0.00,,,0.00,meteohub,2013-11-26 04:27:00,
2013-11-25 22:32:00,30.2,19.6,29.98,NW,315,24.0,26.0,64,0.00,,,0.00,meteohub,2013-11-26 04:32:00,
2013-11-25 22:37:00,30.2,19.9,29.98,NW,315,20.0,26.0,65,0.00,,,0.00,meteohub,2013-11-26 04:37:00,
2013-11-25 22:42:00,30.0,20.1,29.98,NW,315,23.0,24.0,66,0.00,,,0.00,meteohub,2013-11-26 04:42:00,
2013-11-25 22:47:00,30.0,20.1,29.98,NW,315,21.0,24.0,66,0.00,,,0.00,meteohub,2013-11-26 04:47:00,
2013-11-25 22:52:00,29.8,19.6,29.99,NW,315,27.0,27.0,65,0.00,,,0.00,meteohub,2013-11-26 04:52:00,
2013-11-25 22:57:00,29.5,18.5,29.99,NW,315,34.0,34.0,63,0.00,,,0.00,meteohub,2013-11-26 04:57:00,
2013-11-25 23:01:00,29.3,18.0,29.99,NW,315,31.0,34.0,62,0.00,,,0.00,meteohub,2013-11-26 05:01:00,
2013-11-25 23:02:00,29.1,17.8,29.99,NW,315,30.0,34.0,62,0.00,,,0.00,meteohub,2013-11-26 05:02:00,
2013-11-25 23:05:00,29.1,17.8,29.99,NW,315,36.0,36.0,62,0.00,,,0.00,meteohub,2013-11-26 05:05:00,
2013-11-25 23:06:00,28.9,17.2,30.00,NW,315,34.0,36.0,61,0.00,,,0.00,meteohub,2013-11-26 05:06:00,
2013-11-25 23:11:00,28.8,17.1,29.99,NW,315,28.0,36.0,61,0.00,,,0.00,meteohub,2013-11-26 05:11:00,
2013-11-25 23:17:00,28.6,16.9,29.99,NW,315,32.0,36.0,61,0.00,,,0.00,meteohub,2013-11-26 05:17:00,
2013-11-25 23:22:00,28.6,17.2,29.99,NW,315,32.0,34.0,62,0.00,,,0.00,meteohub,2013-11-26 05:22:00,
2013-11-25 23:27:00,28.4,17.1,29.99,NW,315,30.0,34.0,62,0.00,,,0.00,meteohub,2013-11-26 05:27:00,
2013-11-25 23:32:00,28.2,15.3,29.99,NW,315,29.0,34.0,58,0.00,,,0.00,meteohub,2013-11-26 05:32:00,
2013-11-25 23:37:00,28.2,15.3,30.00,NW,315,30.0,34.0,58,0.00,,,0.00,meteohub,2013-11-26 05:37:00,
2013-11-25 23:42:00,28.0,15.3,30.00,NW,315,27.0,34.0,58,0.00,,,0.00,meteohub,2013-11-26 05:42:00,
2013-11-25 23:47:00,27.9,15.1,30.00,NW,315,25.0,34.0,58,0.00,,,0.00,meteohub,2013-11-26 05:47:00,
2013-11-25 23:52:00,27.9,15.1,30.01,NW,315,23.0,30.0,58,0.00,,,0.00,meteohub,2013-11-26 05:52:00,
2013-11-25 23:57:00,27.9,15.1,30.00,NW,315,23.0,30.0,58,0.00,,,0.00,meteohub,2013-11-26 05:57:00,